Location: Fontevrault
(47.1823°N, 0.0493°E)
Time: 07:40:02
(UTC+00:00)

Iridium 2 - Pass Details

Date: 16 June 2021
Orbit: 502 x 512 km, 85.5° (Epoch: 26 July)

Event Time Altitude Azimuth Distance (km) Brightness Sun altitude
Exits shadow 23:22:28 42° 219° (SW) 730 4.1 -18.9°
Maximum altitude 23:23:29 60° 277° (W) 585 3.9 -18.9°
Drops below altitude 10° 23:27:13 10° 358° (N) 1,730 7.6 -19.0°
Sets 23:29:22 0° 2° (N) 2,618 8.9 -19.1°
